< < Back
Terminal Aerodrome Forecast


Current Version              Previous Versions:   1  2  3  4  5  6  7  8  9  

Terminal Aerodrome Forecast

875
FTUS42 KCHS 300520
TAFSAV
TAF
KSAV 300520Z 3006/3106 20004KT P6SM SCT050 BKN120 WS020/25035KT
     FM301400 32014G23KT P6SM SKC
     FM302100 31005KT P6SM SKC=



Latest METAR

912
SAUS80 KWBC 301700 RRA
MTRSAV
METAR KSAV 301653Z 30015KT 10SM FEW250 13/02 A3018 RMK AO2 SLP218
T01330022


USA.gov is the U.S. government's official web portal to all federal, state and local government web resources and services.